GEFSCGP_500_meanwind_000.txt.gz
Wind_Speed
30 29 29 28 29 29 30 30 28 26 23 20 19 19 20 19 20 21 22 25 26 27 30 30 30 32 32 31 30 29 28 28 27 29 29 30 30 32 34 36 37 37 38 40
30 28 26 25 26 29 31 31 30 27 24 22 22 23 23 22 22 23 24 24 22 22 24 24 24 24 26 28 28 29 30 31 31 31 31 31 32 35 38 40 42 43 43 43
28 25 23 23 23 24 27 27 27 26 23 22 23 24 24 23 22 22 22 21 19 20 20 21 21 23 25 28 29 30 31 32 33 34 33 33 34 38 42 44 46 48 48 48
27 25 23 21 20 21 24 24 23 22 21 19 20 21 21 20 18 19 19 19 18 19 19 19 20 22 23 25 27 28 30 31 33 34 34 34 37 40 45 48 50 52 52 53
26 24 22 20 18 18 20 21 20 20 18 17 17 17 15 15 15 16 17 18 18 19 20 20 21 23 24 25 26 27 27 28 29 31 33 35 37 42 46 49 52 54 55 57
25 23 21 19 18 17 17 18 18 17 17 17 17 17 14 14 15 17 18 20 20 21 22 24 25 27 28 30 31 32 32 33 33 35 36 39 41 44 47 50 53 55 57 59
25 22 20 18 16 15 15 15 15 16 16 17 17 17 16 17 18 20 23 24 26 27 28 29 31 33 34 36 37 38 39 40 41 42 43 44 46 48 51 53 55 57 58 59
24 21 20 18 16 14 14 14 15 16 16 16 18 18 20 22 24 27 29 31 32 34 35 36 37 38 39 40 40 41 43 43 44 46 48 51 53 55 56 57 58 59 61 61
23 20 19 17 16 15 16 17 17 18 19 20 22 23 24 27 29 32 34 35 37 38 38 39 39 39 39 40 40 41 43 44 45 47 48 51 53 54 55 56 59 61 62 63
23 21 21 20 19 19 20 21 22 24 26 28 28 28 28 31 32 37 40 41 41 41 39 38 38 39 40 41 42 44 47 48 49 50 51 52 53 55 56 57 59 60 62 64
25 24 24 23 23 22 24 25 27 30 31 32 33 26 26 28 31 36 39 40 40 41 43 43 45 46 48 49 51 53 54 54 54 54 53 52 53 55 56 58 59 61 63 64
26 24 24 25 26 27 28 30 31 32 32 33 36 27 27 31 35 39 42 43 44 46 48 50 51 52 53 54 54 53 52 50 49 50 51 52 54 57 60 62 63 64 66 67
24 23 23 26 27 29 31 34 35 35 36 35 40 31 32 36 41 45 47 48 49 50 52 53 52 50 50 49 48 46 47 49 51 53 55 57 59 61 63 65 67 69 72 72
17 19 22 24 27 30 32 34 34 36 37 41 40 37 34 39 45 47 49 50 50 50 49 47 46 45 45 46 47 49 52 53 54 56 57 58 60 63 65 67 70 72 75 76
18 20 23 25 28 32 33 33 32 36 36 42 40 42 41 46 49 47 48 49 50 50 49 49 48 48 49 50 51 51 52 53 53 55 57 58 60 61 63 65 68 71 74 77
20 22 24 24 27 31 35 32 33 36 39 43 45 45 43 45 47 48 48 48 50 51 54 55 54 53 53 53 53 52 51 51 51 51 52 54 56 59 61 64 66 69 71 74
24 26 30 31 32 35 39 35 36 37 40 42 43 45 46 45 47 48 51 52 53 55 56 57 58 58 58 59 58 57 55 54 54 54 54 55 57 59 60 62 63 66 69 72
24 26 28 31 28 29 34 34 36 37 38 42 45 47 49 51 52 53 54 55 55 56 56 56 57 58 60 61 61 61 60 60 59 58 58 59 60 60 61 61 62 63 64 66
24 27 31 33 34 33 36 42 45 45 44 47 50 53 56 57 59 59 57 57 57 55 56 58 60 62 63 63 62 62 61 61 62 61 60 60 62 62 62 62 62 63 63 64
27 31 34 37 41 43 43 46 50 54 54 56 58 59 60 61 61 62 60 59 57 57 57 59 62 63 64 64 63 62 62 62 62 62 63 64 64 65 64 64 64 64 64 64
32 37 41 45 49 50 50 55 58 60 62 66 67 66 65 64 63 61 59 58 58 59 60 61 62 63 65 66 66 65 63 63 63 64 65 67 67 68 68 68 68 67 66 65
40 46 49 52 54 55 58 62 65 68 71 73 73 73 71 70 68 66 64 61 60 61 63 64 65 66 65 65 64 64 64 65 66 66 67 69 71 72 72 70 68 67 67 67
45 49 54 55 58 59 63 68 70 71 72 72 73 73 72 73 72 71 70 68 67 67 68 68 67 66 63 62 62 63 66 67 68 69 71 73 74 75 74 71 68 66 66 66
52 54 57 59 60 62 69 74 75 76 75 76 76 75 75 75 76 78 78 75 72 72 71 68 64 62 60 62 63 67 70 71 73 75 77 78 77 75 72 69 65 63 62 61
57 61 62 64 64 68 71 72 74 77 79 78 77 74 71 70 71 71 70 69 69 70 67 61 58 59 61 64 68 72 77 80 81 81 80 78 75 71 68 65 62 60 60 59
64 65 68 69 70 76 77 79 78 75 75 75 74 73 72 70 68 67 67 67 65 62 59 58 60 63 66 71 75 80 83 85 84 80 75 73 71 69 66 64 62 60 58 56

GEFSCGP_500_meanwind_006.txt.gz
Wind_Speed
54 49 45 40 38 40 39 34 29 30 28 27 26 25 25 22 21 23 23 20 18 19 20 22 25 28 31 32 32 32 31 29 28 28 28 29 31 33 35 37 38 39 41 42
49 45 42 43 42 40 36 31 29 31 29 27 25 24 24 22 21 21 21 21 22 23 25 26 28 30 30 30 30 29 28 28 28 28 30 32 33 35 38 40 41 42 43 44
42 43 45 42 39 39 37 32 30 31 31 27 25 24 24 23 21 21 22 24 26 27 28 29 28 28 28 28 28 27 27 28 29 30 31 32 34 36 38 40 41 42 44 45
43 43 41 39 38 38 35 30 29 31 30 27 25 26 25 25 25 25 26 28 29 29 28 26 26 26 26 26 26 27 28 29 30 31 33 34 35 37 39 41 41 41 42 43
43 41 39 37 35 34 29 28 30 31 27 25 25 26 26 26 26 26 27 27 26 25 24 24 24 25 26 27 28 29 31 33 34 36 38 40 41 43 45 47 48 49 49 49
40 38 35 32 29 27 25 26 27 26 25 24 23 24 26 25 24 22 21 20 20 21 23 24 26 27 29 30 32 33 36 38 40 42 44 45 47 48 50 51 53 54 55 56
38 33 28 26 25 23 23 24 24 22 22 22 21 22 25 24 21 19 18 20 22 23 25 27 30 32 33 35 37 39 40 42 44 46 48 49 51 53 54 54 55 55 56 58
32 29 26 23 20 20 22 23 22 22 22 19 18 20 23 21 20 21 21 24 26 28 30 33 35 37 38 40 41 42 44 45 46 47 49 50 52 54 55 57 58 59 61 63
28 25 22 20 19 19 19 19 18 17 17 17 18 19 22 21 23 26 27 29 31 34 37 39 40 39 40 41 43 44 46 47 49 51 52 54 56 58 60 62 64 65 67 68
23 22 20 19 18 18 17 16 17 17 17 18 18 19 24 25 27 30 33 33 34 36 38 40 40 40 41 44 46 48 50 52 54 55 57 58 59 61 63 64 66 66 66 66
21 20 19 18 18 18 17 16 17 17 18 19 20 21 25 28 29 31 33 33 34 35 38 41 43 43 45 48 50 52 53 55 56 57 58 59 60 61 61 62 63 63 63 64
20 19 18 18 19 19 18 18 18 19 20 22 24 24 25 27 28 31 34 35 35 37 41 45 46 48 50 52 52 53 54 55 56 57 58 60 61 62 63 64 65 66 67 69
20 20 20 20 20 19 18 18 19 21 23 24 24 21 23 25 28 32 36 37 37 40 43 47 49 51 52 53 55 56 57 58 59 60 62 63 65 66 67 69 70 71 72 72
20 20 21 20 18 20 20 20 21 22 21 22 21 21 24 27 31 35 38 39 40 41 43 46 50 53 56 59 61 63 64 66 67 69 70 70 71 71 71 72 72 72 73 73
17 18 19 20 20 21 19 18 19 21 23 25 26 27 28 31 33 35 38 40 43 46 48 51 55 58 61 64 66 68 70 72 73 74 75 76 76 76 75 74 74 74 74 75
11 13 15 16 18 18 17 19 23 26 28 31 32 30 31 33 34 37 41 46 49 52 54 57 60 64 66 68 70 72 73 74 75 76 77 77 76 76 75 75 75 75 76 76
14 16 18 19 21 22 22 23 25 27 28 29 31 32 36 39 42 45 48 52 55 58 61 64 67 70 72 74 75 76 77 78 78 78 78 77 77 77 77 75 74 74 75 76
20 22 23 23 24 25 23 22 22 24 26 30 33 37 42 45 49 52 56 58 61 65 68 71 74 77 79 80 80 80 80 80 79 78 77 76 77 77 76 76 77 78 78 78
20 21 22 22 23 23 20 23 27 30 32 36 39 43 47 51 55 59 62 65 68 72 75 78 80 82 83 83 82 80 79 79 77 76 76 76 76 76 77 78 79 78 78 77
16 18 20 21 24 24 27 29 32 36 40 44 48 52 55 58 62 64 67 70 73 77 80 82 84 84 83 81 79 77 76 75 75 75 75 75 74 74 73 73 72 72 72 72
17 19 21 25 28 30 34 37 40 44 49 53 56 58 62 64 66 68 70 74 77 81 83 83 82 81 79 77 74 73 73 73 73 74 73 73 72 72 71 71 70 71 72 74
21 24 27 30 33 36 39 42 46 50 54 56 59 61 64 67 70 73 76 79 81 82 80 79 77 75 73 72 70 70 70 70 70 69 69 68 68 68 69 71 72 74 77 80
26 30 34 37 38 41 46 50 54 57 58 59 62 64 68 71 74 77 79 81 80 77 74 72 70 68 67 67 67 66 66 65 64 63 63 63 65 67 70 73 76 79 82 84
32 38 42 45 46 49 53 57 59 60 61 63 66 69 72 74 77 79 80 77 74 70 68 65 63 62 63 63 62 61 61 60 61 62 64 67 70 72 75 78 81 83 84 84
42 46 49 51 54 57 58 61 63 63 65 67 70 72 75 77 79 79 76 71 68 65 63 61 59 59 59 58 58 60 61 63 66 68 71 74 77 79 80 82 83 84 82 80
48 51 54 56 58 61 61 63 65 67 69 71 73 75 78 80 80 77 72 67 63 60 58 57 57 57 58 59 61 64 67 70 73 75 77 79 81 83 84 84 83 80 75 69

GEFSCGP_500_meanwind_012.txt.gz
Wind_Speed
53 51 49 42 33 30 32 31 29 28 27 27 26 26 26 25 23 22 21 22 23 22 21 20 20 20 21 22 25 27 29 29 28 28 27 27 26 26 27 28 29 31 33 35
55 52 45 40 35 35 34 31 29 27 27 28 28 26 24 23 23 22 20 20 20 19 18 19 19 21 24 27 29 31 30 29 27 26 26 26 27 28 30 31 33 35 37 40
55 50 45 42 38 37 35 30 28 27 26 28 29 27 24 22 22 20 18 18 18 17 18 20 22 25 28 31 32 32 31 29 28 27 28 28 30 32 34 36 39 42 44 46
53 49 47 44 39 37 33 29 28 28 27 28 29 27 23 21 22 20 19 19 19 19 21 23 26 29 31 32 32 31 30 30 30 31 32 33 35 37 39 42 44 47 49 51
55 52 48 44 38 35 30 30 29 28 27 29 29 27 22 21 21 21 21 22 22 23 25 27 28 29 29 29 29 30 30 31 33 34 36 38 39 41 43 45 47 49 51 53
53 51 47 41 37 34 32 30 29 28 29 29 28 27 22 21 22 23 24 25 25 26 26 25 25 26 27 28 29 30 31 33 35 36 38 40 41 43 45 48 50 52 54 57
53 50 47 42 39 36 33 31 30 29 30 28 28 28 23 22 23 24 26 27 26 25 24 24 24 25 26 27 29 30 32 34 36 38 40 42 44 47 49 51 53 55 57 59
51 49 44 40 36 33 31 30 29 29 28 27 28 28 24 23 24 25 26 25 24 23 24 24 24 25 27 28 30 31 34 36 39 41 43 46 48 50 52 53 55 57 59 61
44 42 39 36 34 33 32 30 29 29 28 25 25 24 21 22 23 23 23 22 22 23 24 24 25 26 28 30 32 35 38 40 42 44 46 48 49 51 53 56 58 61 63 65
39 36 34 34 35 34 32 29 29 28 26 24 23 20 16 17 18 19 19 19 21 23 24 25 27 29 32 34 36 39 41 43 44 46 48 50 52 55 57 60 62 65 68 71
37 35 34 35 34 31 30 29 27 24 22 21 18 15 13 16 17 18 19 20 22 23 25 27 30 33 35 37 39 41 42 45 47 50 53 56 58 61 63 66 69 72 75 78
36 35 33 31 30 29 28 26 23 20 18 16 14 14 16 18 20 21 22 22 23 25 27 30 32 34 36 39 41 44 47 50 54 57 59 62 65 68 71 73 76 79 82 85
34 33 32 31 30 28 25 22 20 18 17 15 14 16 19 21 23 24 24 24 25 28 31 33 35 37 40 44 47 51 54 57 60 63 65 68 71 75 78 81 84 87 90 93
32 30 28 25 22 21 20 19 19 18 17 16 15 19 22 25 26 25 26 27 30 32 34 35 38 42 46 49 53 56 60 63 66 68 71 74 77 80 84 87 90 94 97 98
29 27 24 23 22 21 20 20 20 20 20 19 18 20 24 28 26 26 27 28 31 33 36 39 43 47 51 54 58 62 65 68 71 74 77 80 83 86 89 92 95 98 100 100
26 24 24 23 22 22 22 22 23 23 22 22 21 21 27 27 25 26 27 30 33 36 41 45 49 53 57 60 64 67 70 72 75 78 81 84 87 91 93 96 97 97 96 94
27 26 25 24 22 23 23 24 23 22 22 23 21 22 24 25 26 28 31 34 37 41 46 50 55 59 62 66 68 71 73 75 78 82 85 89 91 93 94 94 92 90 86 82
21 22 22 21 21 22 23 23 23 23 23 23 22 22 24 26 28 32 35 39 43 47 52 56 60 63 66 68 71 73 76 79 83 86 89 92 92 91 89 85 81 77 73 71
16 17 18 19 20 21 22 21 22 21 22 22 23 24 26 29 33 36 40 45 50 54 57 60 63 65 67 70 73 76 79 83 86 88 89 89 86 82 78 74 71 69 67 67
15 16 17 18 19 20 19 19 19 20 22 23 25 27 31 35 39 42 47 51 54 57 60 62 65 67 70 73 75 79 82 85 86 86 84 81 77 74 71 69 68 68 69 70
15 16 16 17 18 19 19 19 20 22 24 28 31 34 38 42 46 50 53 56 58 61 63 65 68 70 73 75 78 82 84 85 84 81 77 73 71 69 69 69 71 73 75 77
18 19 19 20 21 21 21 23 25 27 30 33 37 40 44 48 51 54 57 59 61 64 66 69 71 73 75 78 81 83 83 81 78 74 71 70 69 70 72 74 76 79 83 86
22 22 22 23 25 25 26 28 30 32 36 39 43 46 50 53 55 58 60 62 64 67 69 71 73 75 77 80 82 81 79 75 71 69 68 69 70 73 76 80 83 86 89 93
26 26 25 26 29 31 32 34 36 39 42 44 47 50 52 55 57 59 61 64 67 70 71 73 75 78 80 81 81 78 74 70 68 68 68 71 74 77 81 85 89 92 94 96
29 28 28 30 33 36 38 40 42 44 46 48 50 52 54 56 58 60 63 67 69 71 73 75 77 80 80 79 76 73 69 67 67 68 71 75 79 83 87 89 91 92 90 88
32 31 32 33 36 38 40 44 46 48 50 52 54 55 57 59 61 63 66 69 70 72 74 76 78 79 78 74 71 68 66 66 69 72 76 80 84 87 89 88 85 79 74 69

GEFSCGP_500_meanwind_018.txt.gz
Wind_Speed
60 58 57 52 44 37 37 36 33 31 31 28 24 21 20 18 17 18 18 17 18 20 22 24 25 25 25 25 24 24 24 25 26 27 29 32 33 35 35 35 35 35 35 35
61 59 52 46 43 41 40 37 33 32 31 28 25 21 20 19 19 19 19 18 19 21 23 24 24 24 23 23 23 24 26 28 29 31 33 34 34 35 35 35 36 36 37 38
60 56 50 47 45 42 39 35 32 31 30 28 25 22 21 21 21 20 19 18 19 20 22 23 23 23 22 22 23 26 28 31 33 34 34 34 34 35 35 36 37 38 40 42
57 53 49 46 43 40 35 32 32 32 30 27 25 22 20 22 21 21 20 20 20 21 21 22 23 23 24 24 26 29 31 33 33 34 33 33 34 36 37 38 40 42 44 46
57 52 49 44 39 35 32 33 33 32 30 26 23 22 18 21 22 23 23 22 22 22 23 24 25 26 27 29 30 31 32 32 32 32 33 35 36 38 40 42 44 45 47 49
54 49 46 41 36 34 34 33 32 31 29 25 20 22 16 20 23 24 23 23 23 24 26 27 28 29 31 32 32 32 31 31 32 34 36 37 39 41 43 44 46 48 49 51
53 49 45 41 39 37 36 34 32 30 28 23 21 21 16 20 22 23 24 24 25 26 28 29 30 32 33 34 33 32 33 34 35 37 39 40 41 43 44 46 47 49 52 55
52 49 46 43 41 37 34 32 30 28 26 24 23 21 18 20 22 23 24 25 26 28 30 31 32 33 34 34 34 34 35 37 38 39 40 41 43 44 46 48 51 54 57 61
50 46 44 42 39 36 34 32 29 29 27 24 23 19 18 20 22 24 25 26 28 30 31 31 32 32 33 34 35 36 38 39 40 41 41 43 44 47 50 53 57 61 65 68
48 45 43 41 39 38 35 31 31 30 27 25 23 20 20 20 22 24 25 26 28 29 29 29 30 32 34 35 36 38 39 40 41 42 43 46 48 52 55 59 63 66 70 73
44 43 43 42 41 38 35 34 31 29 28 26 24 21 19 20 22 24 24 25 26 27 27 29 31 34 35 36 37 38 39 40 42 44 46 49 53 57 61 65 68 72 75 78
40 40 39 40 39 37 34 32 31 30 28 27 25 22 20 20 22 24 24 25 25 26 28 31 33 35 36 37 37 38 39 41 43 46 50 54 58 62 66 70 73 76 79 81
37 37 38 39 40 38 36 33 31 30 29 28 25 22 22 23 24 25 25 25 26 28 30 32 34 35 37 37 38 39 41 44 48 52 56 60 64 68 71 74 76 78 80 82
33 35 36 36 33 31 31 29 29 29 29 26 22 20 23 25 27 26 26 26 28 30 32 34 35 36 37 38 39 42 46 50 54 58 61 65 68 71 74 76 78 80 82 85
31 32 32 33 32 30 29 28 28 28 26 25 23 24 26 28 28 26 26 28 30 31 33 35 36 37 38 40 43 47 52 56 59 62 65 69 71 74 76 78 80 83 86 89
29 29 30 30 29 28 29 29 29 29 28 27 26 26 28 29 28 27 28 29 31 33 34 35 36 38 41 45 49 53 56 59 62 65 68 71 73 75 78 81 83 86 89 91
27 28 28 27 26 27 28 27 27 27 27 26 27 26 27 29 29 29 30 31 33 34 34 36 38 42 46 49 53 56 59 62 64 67 70 73 75 78 81 83 86 88 91 92
26 27 27 26 27 29 26 26 27 27 27 26 26 26 27 28 29 30 31 33 34 34 36 39 43 46 50 53 56 59 61 64 67 70 72 75 78 80 83 86 88 90 91 90
25 25 25 26 27 27 26 25 26 26 27 27 27 26 27 28 30 32 32 33 35 37 40 43 47 50 54 56 59 61 64 66 69 72 75 77 80 82 85 87 88 89 88 85
24 24 25 25 26 26 26 26 27 29 29 27 27 27 28 29 31 32 33 35 38 41 44 48 51 54 56 59 61 64 66 69 71 74 77 79 81 84 86 87 87 86 84 82
21 22 24 26 27 27 26 26 27 29 28 27 27 28 28 29 31 32 35 38 42 45 49 52 55 57 60 62 64 66 68 71 73 75 78 80 83 85 85 85 84 82 80 79
18 19 20 22 23 24 23 24 25 26 26 26 26 27 28 30 33 36 39 43 46 50 53 56 58 61 63 64 66 68 70 71 74 76 79 81 83 84 83 82 80 78 78 79
15 15 16 18 19 19 21 23 24 25 26 26 27 29 31 34 37 41 44 47 51 54 57 60 62 63 64 65 66 68 70 72 75 77 80 82 82 81 80 78 77 77 78 80
15 16 18 20 21 22 23 24 26 27 28 29 31 33 36 39 42 45 49 53 56 59 60 61 62 63 64 65 66 68 71 73 76 79 81 81 80 78 76 75 75 76 78 81
19 20 21 22 23 24 24 26 28 29 31 33 35 38 41 44 47 51 54 57 59 60 61 60 61 62 63 65 67 70 73 76 79 80 81 79 77 75 73 72 73 76 78 82
25 25 25 24 24 26 27 28 30 32 34 37 40 42 46 49 52 55 57 59 59 59 59 59 60 61 63 66 69 72 76 78 80 80 78 76 74 73 72 71 71 74 78 81

GEFSCGP_500_meanwind_024.txt.gz
Wind_Speed
62 65 65 63 60 57 52 45 40 38 38 37 34 30 30 26 22 22 22 22 24 25 25 25 24 24 25 26 26 27 27 26 26 27 28 29 30 32 34 36 37 39 40 40
60 64 62 58 56 54 49 45 42 41 40 37 33 29 30 27 23 23 23 23 23 24 25 25 25 25 26 27 27 27 26 25 25 26 28 30 32 34 36 37 38 39 40 41
57 60 57 54 53 52 49 45 42 40 38 36 32 29 29 27 25 24 24 24 24 24 24 25 25 26 27 27 27 26 25 25 26 28 29 31 33 35 36 37 38 40 41 41
53 57 53 51 50 49 46 43 41 40 38 36 33 29 27 27 26 26 26 25 25 24 24 25 26 27 27 26 26 25 25 26 28 29 31 33 34 35 36 38 39 40 41 42
53 56 52 49 46 44 43 43 42 40 38 35 32 29 26 28 28 27 27 26 26 25 26 26 27 27 26 26 26 27 27 29 30 31 33 34 35 36 37 39 40 41 42 43
49 52 49 44 43 43 44 44 42 40 38 35 32 29 27 29 28 28 27 27 27 27 27 27 27 28 28 28 28 28 29 30 31 33 34 34 36 37 39 40 41 43 44 45
49 48 49 46 45 45 46 45 42 40 38 34 31 30 29 29 29 28 27 27 27 27 28 28 29 29 28 28 29 29 30 31 32 33 34 35 37 39 40 41 43 44 46 47
47 45 47 47 46 45 45 44 42 40 37 33 31 30 30 29 29 27 27 27 27 27 28 29 30 29 29 28 29 30 31 32 33 34 35 37 38 40 41 43 44 46 48 50
46 44 46 47 44 42 42 41 39 37 35 32 31 30 29 28 28 27 26 26 26 27 28 30 30 29 29 29 29 30 31 32 33 35 36 38 39 41 42 44 46 49 52 56
45 44 45 46 45 42 40 38 38 36 34 33 31 30 30 28 27 27 26 25 25 26 27 28 28 27 28 28 29 30 31 32 34 36 37 39 40 42 44 46 50 53 57 61
47 44 43 44 45 42 40 39 37 35 34 32 29 28 29 28 27 27 26 25 26 26 27 27 27 27 27 28 29 30 32 34 35 37 38 40 42 44 47 51 55 59 62 66
47 46 44 43 42 40 39 37 35 34 32 30 28 27 27 27 26 26 26 26 26 27 27 27 26 26 27 29 30 32 33 35 36 38 40 42 45 49 53 56 60 63 67 69
46 46 44 44 43 42 41 39 36 34 33 31 29 27 26 26 27 27 27 27 27 27 27 26 26 27 29 31 32 33 34 36 38 40 43 46 50 54 57 61 64 67 69 72
44 43 42 41 40 37 36 36 35 34 32 29 27 24 24 26 27 28 28 29 29 28 27 27 27 29 31 32 33 34 36 38 41 44 47 51 55 58 62 65 68 70 72 74
39 39 39 38 37 36 35 35 35 34 32 30 27 26 25 28 29 29 30 30 30 28 27 27 29 31 32 33 35 36 38 41 44 48 51 55 59 62 66 68 70 72 74 76
35 34 34 35 34 35 35 36 37 35 34 32 30 28 28 30 30 30 31 30 29 28 28 29 31 32 34 35 37 39 41 45 48 52 56 60 63 66 68 70 72 74 75 77
29 31 32 32 33 34 35 33 33 33 32 32 31 26 29 31 31 31 30 29 28 29 30 31 32 34 35 37 39 41 45 48 52 56 61 64 66 68 70 72 73 74 75 77
26 27 28 30 32 32 29 30 31 31 31 32 30 28 29 29 29 29 28 28 29 30 31 32 34 35 36 38 41 44 48 53 57 61 64 66 68 69 70 71 72 74 76 78
27 25 25 25 26 26 25 26 27 27 27 28 27 26 27 27 27 27 27 28 30 31 32 33 34 35 37 40 44 48 52 57 61 64 66 67 68 68 69 71 72 75 77 81
27 26 25 23 22 21 20 22 24 25 24 24 24 24 25 26 27 27 28 30 31 32 32 33 34 37 39 43 47 52 57 61 63 65 66 66 66 67 69 71 74 77 81 85
25 25 24 22 21 19 19 21 22 22 20 21 23 24 25 26 28 29 30 31 31 32 32 34 36 39 43 47 52 56 60 63 64 64 63 64 65 67 70 73 77 81 85 87
24 24 23 22 22 19 19 20 21 21 22 23 24 25 27 28 29 30 30 30 31 32 33 36 39 43 47 52 56 59 61 61 61 61 61 63 66 69 74 78 82 85 88 88
23 22 21 20 18 18 19 20 20 21 23 24 25 27 27 28 28 28 29 30 31 34 36 40 44 48 52 55 58 59 58 58 58 59 61 65 69 74 78 82 85 87 87 85
19 18 17 16 15 15 16 17 18 20 22 23 25 26 26 26 27 29 30 32 34 37 41 45 49 52 55 56 56 55 55 55 57 60 64 69 73 78 82 85 87 86 84 81
16 15 13 12 12 13 14 16 18 20 22 24 25 26 27 28 29 31 33 35 38 42 45 49 51 54 54 53 52 52 53 55 59 64 69 73 78 82 84 86 85 83 80 76
15 14 13 13 14 15 17 19 21 23 25 26 27 28 29 31 32 34 36 39 42 45 48 50 51 51 50 49 50 52 55 59 64 69 74 78 82 85 86 85 82 78 73 70

GEFSCGP_500_meanwind_030.txt.gz
Wind_Speed
51 55 56 56 58 58 56 56 56 53 51 51 51 46 41 39 38 35 32 32 31 28 27 28 29 29 28 27 26 25 26 27 29 30 32 34 35 35 34 33 33 34 36 37
50 51 48 50 53 55 55 54 54 53 51 51 50 46 42 40 38 34 31 31 31 27 27 27 28 28 28 27 26 26 27 28 30 32 34 35 35 34 34 35 36 37 38 40
41 38 40 45 49 52 54 52 51 50 48 51 50 47 42 37 36 35 31 31 30 27 26 26 26 27 27 27 27 28 29 30 32 33 34 34 34 34 35 36 37 39 40 41
33 32 36 41 46 49 51 49 47 45 47 50 48 45 41 39 38 35 32 31 29 26 26 25 25 26 27 27 28 29 30 31 33 33 34 34 34 36 37 38 40 41 42 42
27 28 34 40 43 48 49 46 43 42 45 47 48 46 41 40 37 34 32 30 28 26 25 25 25 25 26 27 28 29 30 32 33 33 33 34 36 37 39 40 41 42 42 42
25 27 31 37 43 45 45 44 42 42 44 47 47 44 38 38 36 34 31 28 27 26 26 25 25 25 26 27 28 29 31 32 33 34 35 36 38 39 40 41 42 42 41 42
24 29 32 37 43 46 46 44 43 43 46 46 42 41 37 37 36 32 29 28 26 26 26 25 25 25 26 28 29 30 31 33 34 35 36 38 39 40 41 41 41 42 42 43
24 29 34 38 42 44 46 45 44 45 46 41 40 40 38 37 32 29 28 27 26 25 25 25 25 26 27 28 29 31 32 33 34 36 37 39 39 40 40 41 41 42 43 45
22 29 36 37 41 43 47 45 41 39 37 36 39 37 36 32 30 28 26 25 25 24 24 24 25 26 27 28 30 31 32 34 35 36 38 39 39 40 40 41 42 43 45 47
20 27 35 38 39 39 43 42 39 36 34 35 37 36 34 29 28 27 25 25 24 24 24 24 25 26 27 29 30 31 32 33 35 36 37 38 39 40 41 42 43 45 47 50
21 23 33 36 36 35 41 42 39 37 35 33 32 32 33 29 27 26 25 25 25 25 25 25 26 27 28 29 30 31 32 33 34 36 37 38 40 41 42 43 46 48 51 55
21 22 29 33 30 33 38 38 37 36 34 31 29 28 28 26 26 25 25 26 26 27 26 27 27 28 29 30 30 31 32 34 35 36 38 39 40 42 43 46 48 52 55 59
23 23 24 29 29 31 34 34 34 33 33 31 29 27 25 24 24 24 25 26 26 27 27 27 28 29 30 30 31 32 33 35 36 37 39 40 42 44 46 49 52 56 60 64
24 22 22 25 28 28 29 29 28 29 30 29 28 26 23 22 22 24 25 25 26 26 27 28 29 30 31 32 33 34 35 36 37 39 40 42 44 46 48 52 56 60 64 67
26 23 22 24 27 27 26 25 25 25 25 24 24 25 24 24 24 25 25 25 26 27 28 29 31 32 33 34 34 35 36 37 39 41 42 44 46 48 52 56 60 64 66 68
27 24 23 25 25 25 25 24 24 24 23 23 24 24 25 26 25 25 25 26 27 28 29 30 31 32 33 34 35 36 37 39 41 42 43 45 48 51 56 60 63 65 66 66
26 24 24 24 25 25 24 23 23 22 23 23 23 22 26 27 27 27 27 28 28 29 30 31 32 33 34 35 36 37 39 40 42 43 45 47 51 55 59 62 64 64 64 65
25 24 24 24 24 24 22 23 23 24 25 26 26 27 29 29 28 29 29 29 30 30 31 32 33 33 34 35 36 38 40 41 42 44 47 50 54 58 61 62 62 62 64 67
26 25 24 24 23 21 21 22 23 24 24 26 28 29 30 29 29 30 30 30 31 31 32 33 33 33 34 35 37 39 40 41 43 46 50 54 57 60 61 60 61 63 66 71
26 25 25 24 23 22 21 21 21 22 22 24 26 28 28 28 30 28 29 30 31 31 31 31 32 33 35 37 38 38 39 42 45 49 53 56 58 59 58 59 62 66 70 75
27 27 26 24 23 20 19 20 20 19 18 21 23 24 25 27 27 26 28 29 29 29 30 31 32 34 36 36 37 38 41 44 48 52 55 57 56 57 58 61 65 70 75 80
24 25 23 22 19 16 18 19 19 18 19 20 21 21 22 24 25 25 25 26 27 28 30 31 33 34 35 36 37 40 43 47 51 54 55 55 55 57 60 64 69 75 79 84
22 22 21 19 16 17 19 18 18 18 18 19 19 20 21 21 22 23 24 26 27 29 30 31 32 33 34 36 39 42 46 50 52 53 53 53 55 59 64 69 74 79 84 88
19 20 20 19 18 18 18 19 18 18 18 18 18 19 20 21 23 24 25 26 27 28 29 30 31 33 36 38 42 45 48 51 51 51 52 54 57 62 67 73 78 83 87 91
17 18 18 18 19 20 19 18 17 17 17 17 17 18 19 20 21 23 24 25 27 28 29 31 33 35 38 41 44 47 49 49 49 50 53 57 61 66 71 76 81 86 90 94
17 17 17 17 18 18 16 14 14 14 14 14 15 16 18 20 21 23 24 26 28 29 31 33 35 37 40 43 46 47 47 48 49 52 56 60 65 70 75 79 83 88 92 94

GEFSCGP_500_meanwind_036.txt.gz
Wind_Speed
43 45 45 44 46 49 51 52 52 52 52 53 54 52 49 47 46 44 43 43 41 37 33 31 30 30 29 28 27 26 25 24 25 25 25 25 26 27 28 30 31 32 33 34
44 44 44 46 48 51 53 54 54 54 54 55 56 56 52 49 48 46 44 43 41 38 34 31 30 30 29 28 27 26 25 25 25 25 26 26 27 28 30 31 33 34 34 35
43 44 45 47 49 51 52 53 53 54 54 56 57 58 56 51 49 48 46 44 42 38 33 31 30 30 29 28 27 27 26 26 26 26 26 27 28 30 32 33 34 35 37 38
42 42 44 46 47 49 50 49 51 52 53 54 56 60 57 52 50 49 46 43 41 37 33 30 30 30 29 28 27 27 26 26 26 27 27 29 30 32 33 35 36 38 39 40
39 39 41 43 42 44 45 43 45 47 49 51 52 57 57 53 51 48 44 42 40 36 32 29 30 30 29 27 26 26 26 26 26 27 28 30 32 33 35 37 38 39 40 41
36 37 38 38 38 39 39 39 41 44 46 51 50 53 57 52 48 44 43 41 38 35 31 30 30 29 28 27 26 25 25 25 26 27 29 31 32 34 36 37 39 40 41 42
33 32 32 32 33 33 35 36 38 41 45 47 45 51 52 46 45 43 40 38 36 33 30 30 30 29 28 27 26 25 25 25 26 28 29 31 33 35 36 38 39 40 41 42
30 26 26 27 28 29 30 33 35 37 38 37 42 49 44 39 40 39 38 36 34 32 30 30 30 29 27 26 25 25 25 25 27 28 29 31 33 35 37 38 40 41 42 43
25 21 21 21 23 25 27 30 31 33 30 32 40 42 38 36 37 36 35 33 31 30 30 30 28 27 26 25 24 24 25 25 27 28 29 31 33 35 37 39 40 41 43 44
20 17 16 16 19 21 23 26 32 31 25 28 35 37 37 35 34 32 30 29 28 28 29 28 26 25 24 24 24 24 24 25 26 28 30 32 34 36 37 39 41 42 44 45
16 15 13 14 15 17 22 26 28 25 21 23 29 31 30 28 27 26 26 27 27 26 26 25 24 23 22 22 22 23 24 25 27 29 31 32 34 36 38 40 42 43 45 46
14 12 10 11 14 18 21 24 25 23 20 21 23 26 28 27 27 28 28 28 27 26 25 24 23 21 21 20 21 22 24 26 27 29 31 33 35 37 39 41 43 44 46 48
13 10 8 9 12 16 19 22 23 22 19 21 21 23 26 28 29 29 28 26 25 24 23 21 20 20 20 21 22 23 25 26 28 30 32 34 36 38 40 42 44 46 48 50
14 9 7 7 9 13 16 19 21 22 21 19 19 20 23 25 26 26 25 24 23 22 21 20 20 20 20 21 22 23 25 27 29 31 33 35 38 40 42 43 45 47 49 52
12 7 6 6 10 15 19 20 22 23 20 20 20 19 21 23 24 24 24 23 21 20 19 19 19 19 20 21 22 24 26 28 31 33 35 37 39 41 43 45 47 48 51 55
12 8 7 8 11 14 20 22 24 23 21 22 21 21 22 23 23 23 22 21 20 19 19 19 19 19 20 21 23 25 27 30 32 34 36 38 40 42 44 46 48 51 54 57
12 9 8 8 11 13 17 21 21 20 21 22 21 19 19 20 21 21 20 20 19 19 19 19 19 20 20 22 24 27 29 31 33 35 37 39 41 43 45 47 50 53 56 58
14 11 10 11 12 14 17 20 19 19 19 19 20 20 20 20 20 20 20 19 19 19 20 20 20 21 22 24 26 28 30 32 34 36 38 40 43 44 46 49 52 55 57 58
16 14 13 13 13 14 17 18 18 19 19 19 19 20 19 18 18 17 17 18 19 20 20 20 22 23 24 26 28 29 31 33 35 37 40 41 43 45 48 51 54 56 57 58
18 16 16 15 14 13 15 17 17 18 18 18 18 18 17 17 16 15 17 18 19 19 20 21 23 25 26 27 28 30 32 34 36 38 40 41 44 47 50 53 55 55 57 59
19 18 17 15 13 11 12 14 15 16 16 17 17 17 17 17 17 18 19 19 19 20 21 22 23 25 26 27 28 30 32 34 36 38 40 43 45 49 52 53 54 55 57 61
18 17 16 14 12 12 12 13 15 15 15 16 16 16 16 17 17 18 18 18 19 19 20 21 22 23 25 27 29 31 33 35 37 39 41 44 47 50 52 52 54 56 59 64
17 17 17 16 15 14 14 13 14 15 14 14 14 14 14 14 15 15 15 16 17 18 19 20 22 24 26 28 30 32 34 35 37 40 43 46 49 50 51 53 55 58 63 67
17 18 18 18 17 16 15 14 13 14 13 13 13 13 13 13 13 13 14 15 16 17 19 21 23 25 27 29 30 32 34 36 39 42 45 47 48 50 51 54 57 62 66 71
17 17 17 18 18 17 16 14 13 13 13 12 13 13 13 13 12 13 13 14 16 18 20 22 24 26 27 29 31 33 35 38 41 43 45 47 48 50 52 56 61 65 70 76
16 16 16 17 18 18 17 15 14 13 13 13 12 12 12 12 12 13 14 15 17 18 20 22 24 26 28 30 32 35 37 40 42 44 45 47 49 51 54 59 64 69 74 79

GEFSCGP_500_meanwind_042.txt.gz
Wind_Speed
32 33 33 35 37 39 41 42 43 44 45 47 48 49 48 46 47 46 45 44 42 40 39 41 41 39 37 35 34 32 32 31 30 28 28 28 29 29 28 28 28 29 30 30
34 34 36 37 39 41 42 44 45 46 48 50 51 52 51 50 49 48 48 47 45 43 42 41 41 39 37 36 35 34 33 31 30 30 30 30 30 30 29 29 29 30 30 31
36 36 38 39 40 42 43 45 47 49 51 53 55 54 52 52 52 51 51 49 48 47 46 44 42 40 38 37 36 35 34 32 31 30 30 30 30 31 30 30 30 31 31 33
37 37 38 40 41 43 44 46 49 51 53 54 55 59 53 53 54 54 53 52 50 49 48 47 44 41 39 39 38 37 35 33 31 30 29 30 31 31 31 31 31 32 33 35
37 37 39 40 41 44 45 47 49 51 53 55 56 61 57 53 53 53 53 54 53 51 50 48 45 41 40 40 39 37 35 33 31 30 29 29 30 30 31 31 32 33 35 36
36 38 39 40 42 44 46 47 49 51 54 57 54 58 59 52 51 51 52 53 54 53 51 49 46 43 41 40 39 37 35 34 31 29 29 29 29 30 31 32 33 34 36 37
36 37 39 40 41 42 44 46 48 51 53 54 51 56 57 51 52 53 53 53 54 53 51 49 46 43 40 39 38 37 35 33 31 30 29 29 29 30 31 32 34 35 37 38
36 36 37 38 39 40 42 43 45 48 50 50 51 54 50 47 51 54 54 54 54 53 51 48 45 42 40 39 38 37 35 33 31 30 30 30 30 30 32 33 34 35 37 38
35 35 34 34 35 36 37 38 39 42 44 47 46 44 40 39 42 45 48 51 52 51 49 46 44 42 40 40 38 37 34 32 31 31 30 30 30 31 32 33 34 36 37 39
33 32 30 31 31 31 31 31 33 36 41 44 42 38 33 29 33 35 39 44 49 49 47 45 43 41 40 39 38 36 34 32 31 30 30 30 30 31 32 33 35 36 38 40
28 28 26 26 25 25 27 27 29 32 36 39 38 26 20 17 20 28 33 40 45 45 44 43 42 41 40 38 37 35 33 31 30 30 30 30 30 31 32 33 35 37 39 41
24 23 21 20 21 22 22 22 26 29 31 33 33 15 9 8 13 21 30 38 42 42 42 41 40 39 38 37 35 33 31 31 30 30 30 30 30 31 32 34 35 38 40 43
20 19 18 17 18 19 20 20 22 26 27 27 26 11 4 8 15 22 30 35 38 39 39 38 38 37 36 35 33 31 30 30 29 29 29 29 29 31 33 34 37 39 42 44
18 17 17 15 16 18 19 19 21 24 24 21 15 4 7 12 21 26 30 34 35 35 35 35 35 34 33 33 31 30 29 28 28 28 28 28 30 31 33 36 38 41 43 45
16 15 15 14 15 16 17 17 18 18 16 13 4 6 13 18 23 28 30 32 33 33 32 32 31 31 31 30 29 28 27 27 27 27 27 28 30 32 35 37 40 42 44 46
14 13 13 11 12 13 12 12 11 9 5 2 8 15 18 21 24 26 28 29 30 30 29 29 29 29 28 27 27 26 26 26 26 27 27 29 31 33 36 39 41 43 45 48
12 11 9 6 7 6 5 4 3 0 5 11 15 18 19 21 23 24 25 26 26 27 27 27 26 26 26 25 25 25 25 25 25 26 27 30 32 35 37 40 42 44 47 49
10 9 6 3 2 3 2 2 2 6 9 12 16 18 19 21 21 22 23 24 24 24 24 24 24 24 23 23 23 23 23 23 25 26 29 32 34 36 38 40 42 45 48 50
10 8 5 2 0 1 1 3 6 8 10 11 13 15 16 17 18 19 19 21 22 22 22 22 21 21 20 20 21 21 22 24 26 28 31 33 35 37 39 41 44 46 48 52
10 8 6 4 2 2 4 5 8 10 10 10 11 12 12 13 14 14 15 16 17 18 18 18 18 18 19 20 20 22 24 26 28 30 32 33 35 37 40 42 45 47 50 53
11 10 8 6 5 5 6 7 8 10 9 8 7 9 9 10 11 12 13 14 14 15 16 16 17 18 19 20 21 23 25 27 28 30 32 34 36 38 41 43 46 49 52 54
12 11 10 8 7 7 7 7 7 7 8 7 7 9 9 10 11 12 13 13 14 14 15 16 17 18 19 20 22 23 25 26 28 30 32 34 37 39 41 44 47 50 52 54
13 13 12 10 9 9 9 9 9 8 9 9 9 9 9 10 12 12 13 14 14 15 16 16 17 18 18 20 21 23 25 26 28 31 33 35 38 40 43 46 49 51 53 54
14 14 14 12 11 11 11 10 9 9 9 9 10 10 10 11 12 13 13 14 14 15 15 15 16 17 19 20 22 23 25 27 29 31 34 36 39 42 44 47 49 51 52 54
15 15 15 14 14 13 13 12 10 9 9 9 10 10 10 10 11 12 12 12 13 13 14 15 16 17 19 20 22 24 26 28 30 33 35 38 41 43 45 47 49 51 53 56
15 15 16 16 15 14 13 13 12 11 11 10 10 10 10 10 11 11 11 12 12 13 14 15 16 18 19 21 22 25 27 30 32 35 37 40 42 44 45 47 49 51 54 58

GEFSCGP_500_meanwind_048.txt.gz
Wind_Speed
32 31 30 30 31 30 30 30 30 30 31 33 34 34 33 34 36 38 40 42 43 43 42 42 43 43 43 43 43 43 43 42 41 39 38 37 36 36 36 36 35 35 35 34
31 30 30 29 29 29 30 31 32 33 35 37 37 38 37 38 38 40 42 43 45 45 45 45 44 44 44 44 44 44 44 43 42 41 39 38 37 36 36 36 36 35 35 35
30 29 28 28 28 29 30 32 34 36 38 40 42 42 41 41 41 42 44 46 47 47 48 48 47 46 45 45 45 45 44 44 43 42 41 39 38 37 36 36 36 37 36 36
30 29 28 28 29 31 32 34 36 39 41 42 45 49 44 44 43 44 46 49 50 50 50 50 50 48 47 46 45 45 45 44 43 42 41 40 39 37 36 36 36 37 37 37
30 29 29 29 30 32 34 36 38 41 43 45 46 50 47 46 45 46 48 50 52 53 53 52 52 51 50 48 47 46 45 44 43 42 41 40 38 37 37 37 37 37 37 37
31 31 30 31 32 34 35 37 39 41 44 47 46 49 48 46 46 47 49 51 53 55 55 55 55 54 53 52 50 48 47 45 43 42 41 39 38 38 37 37 37 37 37 37
31 31 31 31 32 34 35 37 39 43 45 46 47 49 46 44 47 49 51 52 54 56 58 58 57 56 56 54 51 50 48 46 44 43 41 39 38 38 38 37 37 37 37 37
30 30 30 31 31 33 34 36 38 42 45 46 45 45 41 42 46 49 51 53 54 55 57 58 58 57 57 56 54 51 49 47 45 43 41 39 38 38 38 37 37 37 37 38
29 29 28 30 30 31 33 35 37 40 42 43 43 41 39 40 44 47 49 50 51 52 54 56 57 57 57 56 54 52 50 48 46 43 41 40 38 38 38 38 37 37 37 38
27 27 27 28 29 31 33 33 34 36 38 40 39 36 34 33 37 41 44 47 48 49 51 54 56 56 55 55 54 52 50 48 46 44 42 40 38 38 38 37 37 37 38 39
25 25 24 25 27 28 28 29 30 33 35 38 38 30 28 29 32 35 39 41 43 44 46 50 54 55 55 54 53 52 50 47 45 43 41 39 37 37 37 37 37 37 37 38
23 22 22 23 25 25 25 26 29 32 33 35 36 26 25 27 29 31 33 34 35 36 39 44 49 52 52 52 51 50 48 46 43 41 39 38 37 36 36 36 36 37 37 38
21 21 20 20 21 22 22 24 27 29 31 30 30 25 23 24 24 26 27 26 26 27 31 37 44 48 49 49 48 47 46 43 41 39 37 36 36 36 36 36 36 36 37 37
20 18 17 18 20 21 20 21 23 26 26 24 23 22 19 19 19 20 19 18 17 20 26 33 40 44 46 46 45 44 42 40 38 37 36 35 35 35 35 35 36 36 36 37
18 17 16 17 18 18 17 17 19 21 20 20 17 17 14 13 13 13 11 8 9 15 22 31 37 40 42 42 42 41 39 36 35 34 34 34 34 34 35 35 34 35 36 37
17 16 15 14 16 15 13 13 14 14 14 14 13 12 10 8 6 6 3 1 8 15 22 30 35 38 38 38 37 36 34 32 32 31 31 32 32 33 33 33 33 34 36 39
15 15 13 12 13 11 9 9 9 10 10 9 9 9 8 6 3 3 4 7 12 18 23 29 32 34 34 34 32 30 29 29 29 29 29 30 31 31 31 32 33 35 38 41
14 14 12 10 10 8 7 6 6 6 6 6 6 5 5 3 2 4 7 10 15 19 23 27 28 29 29 28 27 26 26 26 26 27 27 28 28 29 30 31 34 37 40 42
13 12 11 10 8 5 4 3 2 1 1 2 2 2 2 2 4 7 9 11 14 17 20 22 23 23 23 23 22 22 23 23 23 24 24 25 26 28 30 33 36 38 41 43
13 12 11 9 7 5 4 3 1 3 2 1 1 2 3 4 5 7 9 11 13 14 16 17 18 18 19 19 19 19 19 20 20 21 22 24 26 29 32 34 36 39 42 44
13 12 11 9 7 5 6 5 3 3 2 3 3 2 2 3 4 6 8 10 11 12 12 13 14 15 15 16 16 16 17 17 18 20 22 25 27 30 32 34 37 40 43 45
13 13 12 10 8 6 7 6 5 3 3 4 3 2 2 3 4 5 7 8 9 10 11 11 12 12 12 12 13 14 15 17 19 21 23 25 28 30 33 35 38 41 44 46
13 13 12 11 9 8 8 7 6 4 4 4 4 3 3 3 4 6 7 7 7 8 8 9 9 9 10 10 12 13 15 17 19 21 23 26 28 31 34 37 39 42 45 47
13 12 12 12 11 10 10 9 7 5 5 4 4 4 4 4 4 5 6 6 7 7 7 7 8 8 9 10 12 14 15 17 19 22 24 27 30 32 35 38 41 44 46 48
12 12 12 12 11 10 10 10 8 7 6 6 5 5 5 5 6 6 6 6 7 7 7 8 8 9 10 11 12 14 16 18 21 23 26 29 31 34 37 40 42 44 46 48
13 13 13 12 12 11 11 11 10 9 8 8 7 6 6 6 6 6 7 8 8 8 8 8 8 9 10 11 13 15 18 20 23 25 28 31 33 36 39 41 43 44 46 48

GEFSCGP_500_meanwind_054.txt.gz
Wind_Speed
34 36 37 37 38 39 41 41 40 39 40 39 37 36 34 33 32 31 31 32 33 33 33 33 34 35 36 38 40 42 42 41 42 43 41 40 40 39 38 38 37 36 36 36
32 33 33 34 36 37 37 37 37 38 38 38 37 36 34 33 33 33 34 34 35 36 36 37 37 38 39 40 41 42 43 43 43 44 43 43 43 41 39 38 38 37 37 37
30 30 30 32 32 33 34 34 35 35 36 36 37 36 34 34 34 35 36 37 38 39 40 41 42 43 43 43 44 44 44 45 45 45 46 45 43 42 41 40 39 38 38 38
30 29 28 29 29 30 31 31 31 32 33 34 35 36 34 34 35 37 38 40 41 43 44 45 46 47 48 48 48 47 47 48 48 48 48 47 45 44 43 42 40 39 39 39
28 27 26 26 26 27 27 27 28 29 31 32 33 36 35 36 37 39 41 43 45 46 48 49 50 50 51 52 52 52 51 51 50 49 49 48 47 46 45 43 42 40 40 39
28 26 25 24 24 24 24 25 26 28 30 32 32 35 35 38 40 42 44 46 47 49 49 50 51 52 53 54 55 55 55 54 52 51 50 49 48 47 46 45 43 42 40 40
27 25 24 23 23 23 24 24 26 28 30 32 34 36 36 39 41 44 46 48 49 49 49 49 50 51 52 53 54 55 56 55 54 53 51 50 49 48 47 46 44 42 41 40
27 25 24 23 23 23 24 25 27 30 32 34 36 38 38 40 42 44 45 47 48 49 49 50 50 50 51 52 53 54 55 56 55 54 52 51 49 48 47 46 45 43 41 41
27 25 25 24 24 24 25 26 28 31 33 36 37 38 38 39 41 43 45 47 48 49 49 49 50 50 50 51 52 52 54 55 55 54 53 51 49 48 47 47 45 43 41 41
27 26 25 25 25 26 27 27 29 31 33 36 36 35 35 36 38 41 42 44 45 46 47 48 49 50 50 50 51 52 52 53 54 54 53 50 48 47 47 46 45 43 42 41
26 26 25 24 25 26 27 28 29 31 33 34 35 32 31 33 35 37 39 41 42 44 46 47 48 49 49 50 50 51 50 52 52 51 50 49 48 47 46 45 44 43 41 40
25 24 23 24 25 26 26 27 28 29 30 31 33 27 25 29 32 35 37 39 40 42 45 46 47 47 47 47 48 49 49 49 48 48 47 47 46 46 45 44 43 41 40 39
24 23 23 24 25 25 25 25 27 28 29 28 28 24 25 29 31 32 34 36 38 40 42 43 43 42 41 41 43 45 46 45 45 45 44 44 43 43 43 42 41 40 39 39
23 22 23 23 24 23 22 23 25 26 26 25 24 23 21 26 28 29 31 33 35 37 38 38 37 35 34 34 35 39 40 41 41 41 41 41 40 40 39 39 38 38 38 38
22 21 22 22 22 21 20 21 22 23 23 23 21 21 20 23 25 26 28 29 30 31 31 29 27 24 23 24 27 31 35 36 37 37 37 37 37 36 36 36 35 36 36 37
20 20 21 21 21 20 19 19 20 20 21 20 19 17 19 20 22 24 24 25 26 25 23 19 16 13 14 18 22 26 31 33 34 33 33 32 32 32 32 33 33 34 34 35
19 19 19 19 20 19 17 17 18 18 17 17 16 15 16 18 20 20 20 21 20 19 15 10 5 4 10 15 20 24 27 29 29 29 29 28 29 29 29 30 31 32 33 35
17 18 18 18 19 17 16 15 15 15 14 14 13 12 14 15 17 17 15 15 15 14 12 7 4 7 12 16 20 22 25 25 26 25 25 25 25 26 26 27 29 31 33 35
17 17 17 17 17 16 14 13 12 11 11 11 10 11 12 13 14 14 12 11 11 11 10 9 9 12 14 17 18 20 21 21 21 21 21 21 22 23 25 27 29 30 32 34
15 15 15 15 14 13 12 11 10 9 9 9 8 9 10 10 11 11 10 10 9 8 9 10 11 13 16 17 18 17 17 17 17 17 17 18 20 22 24 25 27 29 32 34
14 14 14 14 13 12 11 10 9 8 8 8 8 8 8 9 9 8 8 7 7 7 8 10 11 12 13 13 14 15 14 14 14 15 16 17 19 21 23 25 27 29 31 34
14 13 13 14 12 11 11 10 10 8 8 7 7 7 7 8 7 7 6 6 5 5 6 8 9 10 11 11 12 12 12 12 14 14 15 17 19 20 22 24 26 29 32 35
13 13 13 13 12 12 11 11 10 8 8 7 6 7 7 7 6 5 5 4 3 3 3 5 7 8 8 8 9 10 11 12 12 13 14 16 17 19 21 24 27 30 34 37
13 13 13 13 13 12 12 11 10 9 8 7 6 6 7 7 6 4 4 3 1 1 1 2 4 5 6 7 7 7 7 8 10 11 13 15 17 20 23 26 29 33 35 38
13 13 13 13 14 12 12 12 11 9 8 8 7 7 6 6 5 4 4 3 2 1 1 1 2 3 4 4 5 5 6 8 9 11 14 17 20 23 26 29 32 34 37 40
14 14 14 13 14 13 12 13 12 11 11 10 8 7 7 5 5 4 4 3 2 2 2 2 3 3 3 4 5 6 7 9 11 14 17 20 23 26 28 31 34 36 38 40

GEFSCGP_500_meanwind_060.txt.gz
Wind_Speed
38 38 39 39 39 40 42 43 44 44 45 45 45 43 40 41 42 40 39 38 37 35 35 35 34 34 34 34 33 33 33 33 34 35 35 35 36 36 37 37 37 36 35 34
38 37 36 36 38 39 40 40 41 42 44 44 44 43 40 40 41 40 40 38 37 37 36 36 35 35 35 35 35 35 35 35 36 37 37 39 40 40 40 39 39 38 37 37
35 34 34 35 35 36 37 37 38 39 40 41 42 41 39 39 40 40 39 38 38 37 37 37 37 37 37 37 37 38 38 39 39 40 41 41 42 42 41 40 39 39 39 39
34 33 33 32 32 32 33 33 34 35 37 38 39 38 35 36 37 37 37 37 37 38 38 38 39 39 39 39 40 41 42 43 43 44 44 44 44 44 43 42 42 42 42 42
32 32 31 30 30 30 30 30 30 32 33 34 35 36 31 32 33 34 34 36 37 38 39 39 40 40 41 42 43 44 45 46 47 48 48 48 47 47 46 46 45 44 44 44
30 30 29 29 28 28 27 27 27 28 29 30 29 32 29 28 30 31 33 34 36 37 39 40 41 42 44 45 47 48 49 50 51 52 52 52 52 50 49 49 48 47 47 46
29 28 28 27 27 26 25 25 25 25 26 25 25 27 26 26 28 29 31 34 36 38 40 42 43 45 46 48 49 51 52 53 54 54 54 54 54 53 52 51 51 50 48 47
28 27 27 26 25 24 23 24 24 23 23 22 23 24 24 25 26 28 31 34 36 39 41 43 45 47 48 50 52 53 53 54 54 54 54 55 54 54 53 52 51 50 49 48
27 26 25 25 24 23 23 22 21 21 21 21 22 22 23 24 26 29 31 34 36 39 41 43 45 47 49 50 52 53 54 54 55 55 54 54 54 53 53 52 52 51 50 49
26 25 25 23 23 22 21 21 21 20 20 20 20 20 22 24 27 29 31 33 35 38 40 42 44 45 47 49 51 52 53 54 54 54 54 54 53 53 52 52 52 51 50 50
24 24 23 23 22 21 20 20 20 19 20 20 20 19 22 24 26 28 30 32 33 35 36 38 41 43 46 48 50 52 53 53 53 53 52 52 52 51 50 49 50 50 50 50
24 23 23 22 22 21 20 19 19 20 19 19 19 19 21 23 25 27 29 30 31 33 35 37 39 42 44 46 48 50 51 52 52 52 51 50 50 49 48 46 46 48 48 48
22 23 22 22 21 20 19 19 19 20 19 19 18 17 21 23 25 26 27 27 29 31 34 36 38 41 43 44 45 46 46 46 47 48 49 49 48 48 46 45 44 44 45 45
21 22 22 21 20 19 19 19 19 19 19 18 17 17 20 22 23 23 24 26 27 30 32 34 36 39 40 40 40 39 38 38 38 41 43 45 45 45 44 43 41 41 42 42
20 20 20 20 19 19 18 19 19 19 18 17 16 17 19 21 21 22 22 24 25 27 29 30 33 34 35 34 33 31 29 28 28 31 35 38 39 40 40 38 37 37 37 37
19 19 19 19 18 18 17 18 18 17 17 16 15 15 17 17 18 18 19 21 22 23 24 26 28 29 28 27 25 22 18 18 20 24 28 31 33 34 34 33 32 32 32 32
18 18 18 18 17 17 16 17 16 16 15 15 13 14 15 14 15 16 17 18 19 20 21 23 23 23 22 20 16 12 11 12 16 20 23 25 27 28 29 29 27 27 27 27
17 17 17 17 16 16 15 15 15 14 14 14 13 13 13 12 13 14 15 15 16 16 17 18 19 18 16 12 8 5 5 8 12 17 20 22 23 24 25 25 23 23 24 26
16 16 16 16 16 15 15 14 14 13 13 13 12 12 11 11 12 12 12 12 13 13 13 14 15 13 11 7 2 3 5 9 13 16 18 20 21 22 22 21 22 22 23 24
15 15 15 15 15 14 14 14 13 13 13 12 11 10 10 10 10 10 11 11 11 10 10 10 10 9 8 5 4 6 8 11 14 16 18 18 18 19 19 20 20 20 21 24
14 14 14 14 14 13 14 13 13 12 12 10 10 9 9 9 9 9 9 9 9 9 9 8 6 5 5 5 6 8 9 11 13 13 14 14 15 15 16 17 18 20 21 24
14 14 14 14 14 14 13 13 13 12 12 11 9 8 8 8 8 8 8 8 8 7 6 5 4 3 3 4 5 6 8 9 10 10 10 10 11 12 14 16 18 20 22 25
14 14 14 14 14 14 14 13 13 12 12 11 9 8 8 8 8 8 7 7 6 6 4 3 3 2 2 3 4 4 5 6 7 7 8 9 10 11 14 15 18 21 24 27
14 15 14 14 14 14 14 13 13 12 12 11 10 9 8 8 8 7 7 6 5 5 4 3 2 1 1 1 2 2 2 3 4 5 6 8 9 11 14 17 20 22 25 27
15 15 15 14 15 14 14 14 13 13 13 12 11 10 9 9 8 7 6 6 5 5 4 4 3 2 1 1 1 1 2 3 4 5 7 9 11 13 15 18 20 23 26 29
16 15 15 15 16 15 14 15 14 14 14 13 12 11 10 9 8 8 8 7 6 6 5 5 4 4 3 4 4 4 5 5 6 7 9 11 13 16 18 20 23 25 28 30

GEFSCGP_500_meanwind_066.txt.gz
Wind_Speed
40 39 40 40 42 45 46 46 46 46 46 46 47 47 44 45 46 46 46 45 44 42 41 40 40 39 39 38 39 39 39 39 39 38 38 37 37 37 37 37 37 37 36 36
38 37 36 38 40 42 44 44 44 44 45 46 47 46 43 44 46 46 45 45 44 43 42 41 41 40 39 39 39 39 39 40 40 39 39 39 39 40 39 39 39 38 38 38
35 34 34 35 37 38 41 41 41 41 41 43 44 44 42 42 45 45 45 44 43 42 41 41 41 41 40 40 40 40 40 41 41 41 41 42 42 41 41 40 40 40 41 42
34 33 32 33 33 34 35 36 36 37 38 39 41 41 39 40 42 44 43 43 42 41 41 41 41 41 40 40 40 41 41 42 42 43 43 43 43 43 42 43 43 44 44 45
33 33 32 32 32 31 31 32 33 33 35 36 37 38 36 37 39 41 41 41 40 40 40 40 41 41 41 41 41 42 43 43 44 45 45 45 45 45 45 46 46 46 47 47
31 32 32 31 31 31 30 30 30 31 32 33 33 34 33 34 35 37 38 38 38 39 39 39 40 40 41 41 42 43 43 44 45 46 47 48 48 48 48 48 49 49 50 50
29 30 31 31 30 30 30 29 29 29 31 31 30 31 30 31 32 33 34 34 35 36 37 37 38 39 40 41 42 43 44 45 47 48 49 49 50 51 51 52 53 53 54 53
28 28 29 30 29 28 27 27 28 28 28 28 27 27 28 27 28 29 30 31 32 33 34 35 36 37 38 40 41 43 45 46 48 50 51 52 53 54 55 56 56 57 56 56
26 26 27 27 27 27 26 26 26 26 26 24 24 25 24 23 24 26 27 28 29 30 31 33 34 36 38 40 42 44 45 47 50 52 53 55 56 57 58 59 60 60 59 58
23 24 25 25 25 25 25 24 25 24 23 22 21 21 20 21 22 24 25 26 27 28 30 32 34 36 38 40 42 44 46 47 49 51 53 55 57 59 60 61 61 61 61 60
21 22 22 23 24 23 23 23 23 23 22 20 19 18 19 20 21 22 23 25 26 28 30 32 34 36 37 39 41 43 45 47 49 52 54 56 58 59 60 61 61 60 59 59
20 20 21 21 22 22 22 22 22 22 20 18 17 17 18 20 21 22 23 24 26 28 30 31 33 34 36 38 40 42 44 46 48 51 53 55 57 58 59 60 59 59 58 56
19 19 20 20 20 21 20 20 20 20 18 17 16 17 18 19 20 21 22 24 25 27 28 30 31 32 34 36 38 40 42 44 47 49 50 51 53 54 55 56 56 56 55 54
18 18 19 19 18 18 18 19 19 18 17 16 16 17 19 19 20 20 21 23 24 25 26 27 28 29 31 33 35 37 39 41 43 44 44 46 47 47 48 49 50 50 50 50
17 17 18 18 17 18 18 18 18 17 17 16 17 18 19 20 19 20 20 21 22 23 23 24 25 27 29 31 32 34 36 38 38 38 38 39 39 38 38 39 40 40 42 43
16 17 18 18 18 18 18 18 18 17 17 17 17 19 20 19 19 19 19 20 20 20 21 22 23 25 26 27 29 31 32 33 32 31 31 30 29 28 28 28 29 31 33 35
16 17 17 17 18 18 17 18 17 17 17 17 18 19 19 19 19 19 19 18 18 19 19 21 22 23 23 24 25 26 27 27 26 25 24 22 20 19 20 21 21 23 25 28
16 17 17 17 18 17 17 17 17 17 17 17 18 18 19 18 18 18 18 17 17 18 19 19 20 20 20 21 21 20 21 21 21 19 18 15 14 12 13 14 16 18 20 21
16 16 16 17 17 17 17 17 17 17 17 17 17 18 18 17 17 17 16 16 16 16 17 17 17 17 17 17 17 17 17 17 15 13 11 10 9 9 9 11 13 15 15 16
15 16 16 17 17 17 17 17 17 17 16 16 16 16 16 16 16 16 15 15 14 14 15 15 15 14 14 14 14 15 14 13 12 10 8 7 6 5 5 6 8 10 11 12
15 15 16 16 16 16 16 16 16 16 15 15 15 15 15 15 15 15 15 15 15 14 14 13 13 12 12 12 12 12 11 10 9 8 7 6 5 4 3 4 6 8 10 12
14 15 15 15 15 15 16 16 16 16 15 15 15 14 14 14 13 13 13 13 13 12 12 12 11 11 11 10 10 10 9 8 8 7 7 6 5 4 4 5 7 9 11 13
15 15 15 15 15 15 16 16 16 16 16 16 15 15 14 13 13 13 12 12 11 11 11 10 10 10 10 9 9 9 8 7 8 8 8 7 6 6 7 8 9 11 13 15
15 15 15 15 16 16 16 16 17 17 16 16 16 15 14 14 13 12 12 11 11 11 10 9 9 9 8 8 8 8 7 8 8 7 7 7 7 8 9 10 11 13 14 16
15 15 15 16 17 17 16 16 17 17 16 16 16 15 15 14 13 12 12 11 10 10 11 10 9 9 9 8 7 7 7 8 8 8 8 8 9 10 11 12 14 15 17 19
16 16 16 16 17 17 17 17 17 17 17 17 16 15 15 14 13 13 13 12 11 11 11 11 10 10 9 9 8 8 9 9 9 9 10 10 11 12 13 15 16 18 20 22

GEFSCGP_500_meanwind_072.txt.gz
Wind_Speed
41 41 41 40 41 42 44 46 47 48 48 48 47 47 47 47 48 49 48 48 46 44 42 41 40 39 38 38 38 38 38 39 40 40 40 40 40 40 40 40 40 40 39 39
39 39 38 38 39 41 42 44 45 46 46 46 47 47 46 47 47 47 47 47 47 45 43 42 41 40 39 38 38 39 39 40 40 41 41 42 42 43 42 42 42 41 41 41
37 37 37 38 39 39 41 42 43 43 43 43 44 46 46 46 47 47 47 47 46 46 44 43 42 40 39 39 39 39 39 40 41 42 42 43 44 44 43 43 43 43 44 44
35 35 36 36 37 38 39 40 41 41 42 42 42 44 45 45 46 47 46 46 46 45 44 43 42 41 40 40 39 39 40 40 41 42 43 44 44 44 44 44 44 45 46 46
33 33 33 34 34 35 35 36 37 38 40 41 41 42 42 43 43 45 45 45 45 44 44 43 42 42 41 40 40 40 40 41 41 42 43 44 44 44 45 45 45 46 47 48
31 31 32 32 32 32 32 33 33 35 37 39 40 40 39 40 41 42 43 44 43 43 43 42 42 41 41 40 40 40 40 41 41 42 43 43 43 44 45 45 46 47 48 49
29 30 30 30 31 31 30 30 30 32 35 37 37 37 37 36 37 39 40 41 41 41 41 41 41 41 40 40 39 39 40 40 41 41 42 42 43 44 45 45 46 47 48 49
26 28 28 29 29 29 29 29 30 30 31 32 33 34 34 33 34 35 37 38 38 39 39 40 40 40 40 40 39 40 40 40 40 40 41 42 43 44 44 46 47 48 49 51
22 25 26 27 27 27 27 27 28 28 28 29 30 31 31 30 31 32 33 34 35 35 36 37 37 38 38 38 38 38 38 38 38 39 40 41 42 43 44 46 47 49 51 53
20 22 23 24 26 26 26 25 26 26 25 25 27 27 27 27 28 29 31 32 32 33 33 34 34 35 35 36 36 36 36 36 37 38 39 40 42 43 44 46 48 50 52 54
19 20 21 22 23 24 26 25 25 24 24 23 24 25 24 25 27 28 29 30 30 31 31 31 32 32 33 33 33 34 34 35 37 38 39 41 42 43 45 47 49 51 53 55
18 19 20 20 21 22 23 23 24 24 23 23 22 22 23 24 25 26 27 27 28 28 29 30 30 30 31 31 32 33 34 35 36 37 39 40 41 43 45 47 49 51 52 53
16 17 19 19 20 20 21 22 22 22 22 22 22 22 23 23 24 24 24 25 25 26 27 28 28 29 30 30 31 32 33 34 35 36 37 38 40 41 43 45 46 48 49 50
15 16 17 17 17 18 19 21 21 20 20 21 21 21 22 22 22 23 23 23 24 25 26 27 27 28 29 30 31 31 32 32 33 34 35 36 37 39 40 41 42 43 44 45
13 15 16 15 16 17 18 19 19 19 19 20 21 21 21 21 21 22 22 22 23 24 25 26 27 28 28 28 28 29 29 29 30 31 32 33 34 35 36 36 37 38 38 38
13 14 15 15 15 16 17 17 17 18 19 19 20 20 19 19 19 20 21 21 22 23 24 25 26 26 26 25 25 25 26 26 27 28 29 29 30 30 30 31 32 32 31 31
12 13 15 15 15 15 16 16 17 17 18 19 19 19 18 17 18 19 19 20 21 22 23 23 23 24 23 23 23 23 24 24 25 25 25 25 25 25 25 25 25 25 26 25
13 14 14 15 16 16 15 16 17 17 17 18 18 19 18 18 18 18 19 20 20 21 20 20 20 20 21 21 22 22 22 22 21 21 21 21 21 21 20 20 20 20 20 19
13 14 14 15 16 15 16 16 17 17 18 18 18 19 19 18 18 18 18 19 19 18 18 18 18 18 19 20 20 20 19 19 18 18 18 17 17 17 17 16 16 16 16 15
13 14 14 15 16 16 16 17 17 17 18 18 18 19 19 18 19 18 18 18 18 18 18 18 18 18 18 18 17 18 18 17 16 16 16 15 15 15 15 15 14 14 14 13
14 14 14 15 16 17 17 17 17 18 18 18 18 18 18 18 18 18 17 18 18 18 18 17 17 17 17 17 16 16 15 15 14 14 14 14 14 14 14 13 13 13 14 14
14 14 15 16 16 17 18 18 18 18 18 18 18 18 18 18 18 17 17 17 17 17 17 17 17 16 16 16 16 15 14 14 14 13 13 13 13 13 13 14 14 14 13 13
14 15 15 16 17 17 17 18 18 18 19 19 18 18 18 17 17 17 17 16 16 16 16 16 16 16 15 15 15 15 14 14 14 14 13 13 13 13 13 14 14 14 14 14
14 15 15 16 16 16 17 17 17 18 19 19 20 19 19 18 18 17 17 16 16 15 15 15 15 15 15 14 14 14 14 14 13 13 13 13 13 14 14 14 13 14 14 15
14 15 15 16 17 17 17 17 18 18 19 19 20 20 19 19 19 18 17 17 16 16 16 15 15 15 14 14 14 14 14 13 13 13 13 13 14 14 13 13 14 14 15 17
14 15 16 17 18 18 18 18 19 19 19 19 20 20 20 19 19 19 18 18 17 17 16 15 15 15 15 15 14 14 14 14 14 14 14 14 15 14 14 15 15 16 18 19

GEFSCGP_500_meanwind_078.txt.gz
Wind_Speed
42 44 45 42 40 39 40 41 41 41 44 46 47 47 46 47 47 47 48 49 49 48 47 46 45 44 42 41 40 39 39 39 38 37 36 35 35 36 35 35 35 35 36 37
41 41 40 40 39 39 40 39 39 40 42 43 44 46 46 47 47 46 47 49 50 48 47 46 45 44 42 41 41 40 39 39 38 38 37 37 37 37 37 37 37 38 38 39
37 36 38 39 39 38 38 37 37 38 39 40 42 44 45 45 45 45 46 47 49 49 48 47 46 44 43 42 41 40 40 40 39 38 38 38 38 38 38 38 39 40 41 41
33 35 36 36 36 36 36 36 36 36 37 38 40 42 42 43 44 44 44 45 46 48 48 47 46 44 43 42 41 41 40 40 40 39 39 39 39 39 40 41 41 41 42 42
30 33 34 33 33 33 34 35 34 34 34 35 37 39 40 42 42 42 42 43 44 45 46 46 45 44 43 42 41 41 40 40 40 40 40 40 41 41 41 42 42 43 43 44
26 29 31 31 31 31 32 32 31 32 33 34 34 36 37 39 39 40 41 42 42 43 43 44 44 44 43 42 41 41 41 41 41 41 41 41 41 42 42 43 43 44 44 45
24 27 28 30 31 31 31 31 31 32 34 33 32 34 35 37 37 38 39 41 41 41 42 43 42 42 42 41 41 41 41 41 41 41 42 42 42 43 43 44 44 45 45 46
21 24 27 28 30 30 31 31 30 30 30 29 31 33 35 35 35 35 36 38 39 40 41 41 41 41 41 41 41 41 41 41 41 42 42 42 42 43 43 44 44 45 46 46
20 23 25 25 27 29 30 30 28 27 26 26 28 31 33 33 33 34 34 35 37 38 39 40 41 41 41 40 40 40 41 41 41 41 41 41 42 42 43 44 44 44 45 45
18 20 22 23 24 26 27 27 27 26 25 24 25 27 29 30 31 32 33 34 35 36 37 39 40 40 40 40 40 40 40 40 40 41 41 41 41 42 42 42 42 43 43 44
16 18 19 21 22 24 26 26 26 25 25 24 24 26 26 28 29 31 32 33 34 35 36 37 37 38 39 39 39 39 39 39 39 40 40 40 40 40 40 40 41 41 41 42
15 16 17 19 20 22 24 24 24 25 25 24 24 25 23 24 26 28 30 31 33 34 34 35 36 37 37 38 37 37 37 37 37 37 37 37 37 38 38 38 39 39 39 39
12 14 16 18 20 20 21 22 24 24 24 24 24 25 22 22 24 26 28 29 31 32 33 34 34 35 36 36 35 35 35 35 35 35 35 35 36 36 36 36 36 36 36 37
11 13 14 17 18 18 20 22 23 24 23 23 24 24 22 22 23 24 25 26 28 29 30 31 32 33 33 33 33 33 32 32 32 33 33 33 34 34 33 34 34 34 34 35
11 12 14 15 16 16 17 19 21 21 21 23 23 23 22 22 22 22 23 24 25 26 27 28 28 29 29 30 30 30 30 30 30 30 31 31 31 31 32 32 32 32 33 34
12 13 13 14 15 16 16 17 18 19 20 21 22 21 21 21 20 20 21 22 23 23 24 25 25 26 27 27 27 27 28 28 28 28 29 29 29 29 30 30 30 31 31 31
12 13 13 13 14 15 16 16 17 18 19 20 20 20 20 19 18 19 20 21 21 22 22 23 23 24 25 25 26 26 26 27 27 27 28 28 27 27 28 28 28 28 29 29
11 13 13 13 14 14 14 15 17 17 18 18 18 18 18 17 17 19 19 20 21 21 22 22 22 23 24 24 25 25 25 25 26 26 26 26 25 26 26 26 26 26 27 27
12 13 14 14 14 14 14 14 15 16 16 16 17 17 17 17 17 18 18 19 19 20 20 21 22 22 23 23 24 24 24 24 24 24 24 24 23 24 24 24 24 24 25 25
13 13 14 14 15 15 14 15 15 16 17 17 17 17 17 17 18 17 18 18 19 19 20 21 21 21 22 22 22 22 22 22 22 22 22 22 22 22 22 23 22 23 23 24
14 14 14 15 15 15 15 15 16 16 16 16 17 17 17 18 18 18 18 18 19 20 20 20 20 20 20 20 20 20 20 21 21 21 21 21 21 22 22 22 21 21 22 23
14 15 15 16 16 15 15 16 16 16 16 17 17 18 18 18 19 19 19 19 19 19 19 19 19 19 19 19 19 19 20 20 20 20 20 20 21 21 21 21 21 22 22 22
14 15 16 16 16 16 16 16 17 17 17 18 18 18 18 19 19 20 20 20 19 19 19 19 19 19 19 19 19 20 20 20 20 20 20 20 20 20 21 21 21 21 22 22
16 16 16 16 17 17 18 18 18 18 18 19 19 19 20 20 20 20 20 20 19 19 19 18 18 19 19 19 19 19 19 19 19 20 19 19 20 20 20 21 21 21 22 22
17 17 17 17 17 18 18 18 19 19 19 19 20 20 20 20 21 21 20 20 20 19 18 18 18 18 18 18 19 18 18 18 18 19 19 19 19 20 20 21 21 22 22 22
18 18 19 18 18 18 18 19 19 19 20 20 20 20 20 20 21 21 21 21 20 20 19 19 19 19 19 19 18 18 19 18 18 19 19 20 20 20 21 21 21 22 22 23

GEFSCGP_500_meanwind_084.txt.gz
Wind_Speed
40 43 44 42 40 40 40 41 43 43 43 43 43 43 44 45 46 46 46 47 47 47 47 48 47 48 48 47 46 45 43 43 42 40 39 38 37 36 36 35 34 34 33 33
37 40 40 40 39 38 39 40 40 41 42 41 42 43 44 46 46 46 46 46 46 47 47 48 47 47 48 48 47 45 44 43 42 41 40 39 38 38 37 36 35 35 35 35
35 36 39 40 39 37 38 38 39 39 40 40 40 42 44 44 46 47 46 45 45 46 47 47 47 47 47 48 47 46 45 44 43 42 41 40 40 39 38 37 36 36 36 36
32 34 36 37 37 36 36 37 37 38 38 38 38 39 39 41 44 45 45 45 44 44 46 48 48 48 47 47 47 46 46 45 44 43 42 41 40 39 38 38 38 38 38 38
29 31 33 35 35 35 34 34 35 35 36 36 36 36 35 38 40 41 41 42 43 44 45 46 47 48 48 48 48 47 47 46 44 43 42 41 41 40 40 40 40 40 40 39
27 29 30 32 33 33 32 32 32 32 33 34 34 34 33 34 35 37 39 40 42 44 45 45 46 47 48 48 48 48 47 46 45 45 44 43 42 41 41 41 41 41 41 41
24 27 28 30 31 32 32 32 31 31 32 32 31 33 31 30 32 35 38 39 41 42 44 45 46 47 47 48 48 48 48 47 47 46 46 45 44 43 43 42 42 42 42 43
21 23 25 29 30 30 30 31 31 30 30 28 28 30 29 28 30 33 35 38 40 41 42 43 44 45 47 47 47 47 47 47 47 46 46 45 45 45 44 44 44 44 44 44
19 21 23 26 28 29 29 30 29 28 28 28 28 27 26 26 28 31 33 35 37 39 40 42 42 43 44 45 46 47 47 47 47 47 47 46 46 45 45 45 45 45 45 45
18 20 22 24 26 28 29 28 29 28 27 27 27 25 23 23 25 28 31 33 36 37 38 40 41 41 42 43 44 44 45 45 45 46 46 46 46 46 46 46 46 46 45 45
14 18 20 22 24 24 26 27 28 27 27 27 27 25 23 22 23 26 29 32 34 36 37 38 39 40 40 41 42 42 43 43 43 44 44 45 45 45 45 45 45 45 45 45
12 15 16 19 22 22 24 25 26 26 26 26 26 25 23 22 22 24 26 30 33 35 36 37 37 38 39 39 40 41 42 42 42 42 43 43 44 44 44 44 43 43 43 43
10 13 15 17 20 22 23 23 25 25 25 25 25 24 23 22 22 22 24 27 30 33 34 35 36 37 37 38 39 40 41 41 41 41 41 42 42 42 42 42 42 42 42 42
11 13 14 15 17 19 21 22 24 25 24 23 22 21 21 22 22 22 23 25 27 29 32 33 34 36 36 37 37 38 39 40 40 40 40 40 40 40 41 41 41 41 41 41
12 13 14 15 15 17 20 21 23 23 23 23 21 21 20 21 22 22 23 24 25 26 28 30 32 33 34 34 35 35 36 37 37 38 38 38 38 38 38 38 39 39 39 38
12 13 14 15 16 17 19 20 21 21 22 22 21 20 20 21 21 21 22 23 24 25 26 27 28 29 30 31 32 32 33 33 34 35 35 35 36 36 36 36 36 36 36 35
13 13 14 14 15 17 18 19 20 19 20 21 20 19 21 20 20 21 22 22 23 24 24 25 25 26 26 27 28 28 29 30 30 31 32 32 33 33 33 34 34 33 33 33
14 14 14 15 15 16 15 17 18 18 19 19 19 19 19 19 19 19 20 20 21 22 22 22 23 23 24 24 25 25 26 27 27 28 29 30 31 31 32 32 32 31 31 31
14 14 14 14 15 15 15 16 16 17 17 17 17 18 18 19 19 18 19 19 20 20 20 21 21 21 22 22 23 24 24 25 26 27 28 28 29 29 30 30 30 30 29 29
15 15 15 14 14 14 14 16 16 16 16 16 16 17 17 17 17 17 18 18 19 19 20 20 20 20 21 22 22 23 24 24 25 26 27 27 27 28 28 28 28 27 27 27
15 15 15 15 15 14 14 15 16 17 16 15 16 16 16 16 16 17 17 18 18 19 19 19 19 20 20 21 22 22 23 24 24 25 25 25 26 26 26 26 26 26 26 26
16 16 15 15 15 14 14 15 16 16 16 16 16 16 16 16 17 17 18 18 18 18 19 19 20 20 20 21 22 22 23 23 23 24 24 24 24 24 24 25 25 25 25 26
16 16 16 16 15 15 15 15 16 16 17 17 17 17 18 18 18 18 19 19 19 19 20 20 20 21 21 22 22 22 22 22 22 23 23 23 23 23 24 24 24 24 25 25
16 16 16 16 16 16 16 16 17 17 17 17 17 18 18 18 19 20 20 20 21 21 21 21 21 21 21 21 21 22 22 22 22 22 22 23 23 23 23 23 24 24 24 25
18 17 17 16 17 17 17 17 17 18 18 18 18 18 18 19 19 19 20 20 21 22 22 22 21 21 21 20 21 21 21 21 21 21 21 21 22 22 23 23 23 24 24 25
18 18 18 18 18 18 18 18 19 19 19 19 19 19 20 20 19 19 20 20 21 21 22 22 22 21 21 21 20 20 20 21 21 21 21 22 22 23 23 24 24 24 25 25

GEFSCGP_500_meanwind_090.txt.gz
Wind_Speed
33 36 38 38 39 41 44 45 46 46 48 49 49 48 48 49 50 51 52 53 53 52 49 49 49 49 49 48 47 47 46 46 46 45 44 43 43 42 40 39 39 38 36 35
31 33 33 35 38 39 41 43 44 44 45 46 46 47 47 48 48 49 49 50 51 52 51 49 49 48 49 48 48 48 47 47 47 47 47 46 45 43 42 41 40 39 38 37
27 31 31 32 35 37 39 39 41 41 42 43 44 46 46 47 47 47 47 47 48 50 51 50 49 48 48 48 48 49 49 48 48 48 48 48 47 46 44 43 42 41 40 40
25 29 30 30 31 34 36 36 38 39 40 42 43 44 44 45 45 45 45 45 46 47 48 49 50 49 49 48 48 49 49 48 49 50 50 49 48 47 45 44 43 43 42 42
23 26 27 28 29 32 32 33 34 37 38 39 41 43 42 42 43 42 42 43 44 45 46 46 47 48 49 49 49 49 49 49 49 50 50 49 49 48 47 45 44 44 44 43
19 22 24 26 28 30 30 30 31 34 37 38 38 40 39 39 39 40 40 41 42 43 45 45 46 47 48 48 49 49 49 50 50 50 49 49 49 48 48 47 47 46 46 45
17 20 23 26 27 29 29 28 29 32 36 37 36 38 37 35 36 37 38 39 40 42 43 44 45 46 47 48 48 49 49 50 51 51 51 50 50 50 49 48 48 47 47 46
15 18 22 24 25 26 28 27 28 30 33 34 35 36 34 33 34 35 37 38 38 40 41 42 44 45 47 48 49 49 50 50 50 51 51 51 51 51 50 49 49 48 47 47
12 16 20 22 24 25 27 26 25 27 30 31 32 33 32 32 32 34 36 37 37 37 39 40 42 43 45 46 48 49 50 50 51 51 51 51 51 51 51 51 50 50 49 49
11 15 18 20 22 24 26 25 24 24 26 28 29 29 29 29 31 32 34 35 36 36 38 39 40 41 43 44 46 48 49 50 51 51 51 51 51 51 51 50 50 49 50 50
10 14 17 19 20 21 23 25 25 24 25 25 26 26 25 26 28 30 32 33 35 36 37 38 39 41 42 43 44 46 47 48 49 49 50 51 51 51 51 51 50 50 50 50
10 12 14 17 18 20 22 23 24 25 25 25 25 24 24 24 26 27 28 29 32 34 36 38 39 40 41 42 43 44 45 46 47 48 49 49 50 51 51 51 50 50 50 50
9 11 13 15 17 19 21 22 22 23 24 25 25 23 23 23 23 26 27 28 29 31 34 36 37 39 40 41 42 42 43 44 45 46 47 47 48 49 50 50 49 49 48 48
9 11 13 15 16 18 20 22 22 22 23 23 22 21 21 22 23 25 27 28 29 30 31 33 35 37 38 39 40 41 41 42 43 43 44 45 45 46 46 47 47 47 46 46
10 11 13 15 16 18 20 21 23 22 22 23 21 21 21 23 24 25 25 26 28 29 30 32 33 35 36 37 38 39 39 40 40 41 41 42 42 43 43 44 44 44 44 44
11 12 14 15 17 18 19 20 21 22 22 22 22 20 21 24 25 25 25 25 26 27 29 31 32 33 34 35 36 36 37 38 38 39 39 39 40 40 41 41 42 42 42 42
13 14 14 15 17 19 19 19 20 21 21 22 22 20 23 24 25 25 25 25 26 27 28 29 30 31 32 33 34 34 35 36 36 37 37 38 38 38 39 40 40 41 41 41
14 15 15 16 17 18 17 18 19 19 20 22 22 21 23 24 24 24 25 26 26 27 28 28 29 29 30 31 32 33 33 33 34 35 35 35 36 36 37 37 38 38 38 38
15 16 17 17 18 17 17 17 17 18 18 19 20 20 21 23 23 23 24 25 26 26 27 27 28 28 29 29 29 30 30 31 32 32 33 33 33 33 34 34 34 34 34 34
16 17 17 17 18 17 16 17 17 17 18 18 19 19 20 21 21 22 23 24 24 24 25 25 25 26 26 26 27 27 28 29 29 29 30 30 30 30 30 31 31 31 31 32
15 17 17 17 18 18 17 17 17 17 17 18 18 19 19 19 20 21 21 22 23 23 23 23 23 24 24 24 25 25 25 26 26 26 27 27 28 28 28 29 29 29 30 30
15 16 17 18 18 17 17 17 18 18 18 18 18 19 19 19 19 19 19 20 21 22 22 22 22 22 23 23 23 23 23 24 24 24 25 25 26 26 27 28 28 28 28 28
15 16 16 17 18 17 17 17 18 18 18 18 18 19 19 19 19 18 18 19 19 20 21 22 22 22 22 22 22 22 23 23 23 24 24 25 25 26 26 27 27 27 27 27
17 16 17 17 17 18 18 18 18 18 18 18 18 19 19 19 19 19 19 19 19 20 20 21 21 22 22 22 22 22 22 23 24 25 25 25 25 26 26 26 26 26 27 27
18 17 17 18 18 18 19 19 19 19 19 19 18 18 19 19 20 20 21 21 21 21 21 22 22 22 22 22 23 23 23 23 23 24 24 25 25 25 25 25 25 25 26 26
18 19 19 19 19 20 20 20 20 20 19 20 19 19 19 20 20 20 21 21 22 23 23 23 23 23 24 24 24 24 24 24 23 23 23 23 24 24 25 25 25 25 25 26